Location: Bun Machan
(52.1403°N, 7.3744°W)
Time: 08:43:39
(UTC+00:00)

Meteor 2-11 Rocket - Pass Details

Date: 14 July 2020
Orbit: 939 x 957 km, 82.5° (Epoch: 04 August)

Event Time Altitude Azimuth Distance (km) Brightness Sun altitude
Exits shadow 03:32:28 - 192° (SSW) 3,228 6.7 -6.8°
Reaches altitude 10° 03:33:59 10° 193° (SSW) 2,654 6.3 -6.6°
Maximum altitude 03:40:04 82° 281° (W) 957 4.5 -6.0°
Drops below altitude 10° 03:46:10 10° 10° (N) 2,667 7.8 -5.4°
Sets 03:48:40 0° 11° (N) 3,615 8.6 -5.1°
